Virtual LH

Virtual LH. There's no better way to fly
Since 2013.



AIRPORT MAP

METAR AND TAF INFORMATION

METAR FOR LIMC
ADDS - METARS form results

(1131 UTC 16 June 2019)
Data provider http://aviationweather.gov/metar/data/
 
METAR text: LIMC 161120Z 25007KT 200V330 CAVOK 28/14 Q1015 NOSIG
Conditions at: LIMC (MILANO/MALPENSA , IT) observed 1120 UTC 16 June 2019
Temperature: 28.0°C (82°F)
Dewpoint: 14.0°C (57°F) [RH = 42%]
Pressure (altimeter): 29.97 inches Hg (1015.0 mb)
Winds: from the WSW (250 degrees) at 8 MPH (7 knots; 3.6 m/s)
Visibility: 6 or more miles (10+ km)
Ceiling: ceiling and visibility are OK
Clouds: unknown
Weather: no significant weather observed at this time

METAR text: LIMC 161050Z 32007KT 260V050 CAVOK 28/08 Q1015 NOSIG
Conditions at: LIMC (MILANO/MALPENSA , IT) observed 1050 UTC 16 June 2019
Temperature: 28.0°C (82°F)
Dewpoint: 8.0°C (46°F) [RH = 28%]
Pressure (altimeter): 29.97 inches Hg (1015.0 mb)
Winds: from the NW (320 degrees) at 8 MPH (7 knots; 3.6 m/s)
Visibility: 6 or more miles (10+ km)
Ceiling: ceiling and visibility are OK
Clouds: unknown
Weather: no significant weather observed at this time

Forecast for: LIMC (MILANO/MALPENSA , IT)
Text: TAF LIMC 161100Z 1612/1718 VRB05KT 9999 SCT040
Forecast period: 1200 UTC 16 June 2019 to 1800 UTC 17 June 2019
Forecast type: FROM: standard forecast or significant change
Winds: variable direction winds at 6 MPH (5 knots; 2.6 m/s)
Visibility: 6 or more miles 10+ km)
Ceiling: at least 12,000 feet AGL
Clouds: scattered clouds at 4000 feet AGL
Weather: no significant weather forecast for this period

RUNWAY INFORMATION

Runway 17L Runway length 12861 ft Runway width 197 ft
Runway elevation 745 ft Runway displaced threshold 3094 ft Runway heading 170
Runway 35R Runway length 12861 ft Runway width 197 ft
Runway elevation 691 ft Runway displaced threshold 0 ft Runway heading 350
Runway 17R Runway length 12861 ft Runway width 197 ft
Runway elevation 764 ft Runway displaced threshold 0 ft Runway heading 170
Runway 35L Runway length 12861 ft Runway width 197 ft
Runway elevation 696 ft Runway displaced threshold 1329 ft Runway heading 350

AIRPORT FREQUENCIES

Type APP Name MILANO APP Frequency 132.7 MHZ
Type ATIS Name ATIS Frequency 120.025 MHZ
Type CLD Name CLNC DEL Frequency 120.9 MHZ
Type DEP Name MILANO DEP Frequency 126.75 MHZ
Type GND Name GND Frequency 121.9 MHZ
Type TWR Name TWR Frequency 119 MHZ

AIRPORT NEAR NAVIGATION AIDS

Type VOR-DME Name Malpensa Frequency 111200 KHZ
Type NDB Name Malpensa Frequency 364 KHZ